Vorticity
4 3 5 5 4 4 4 4 4 4 5 7 8 11 8 6 5 4 4 4 3 3 5 5 4 2 21 6 12 4 6 4 11 1 11 20 -6 8 3 2 7 7 9 6 9
11 4 6 3 3 5 4 4 5 5 5 5 5 6 7 7 8 7 4 4 4 4 5 7 1 4 -8 11 5 13 9 7 15 6 10 14 15 7 -7 18 19 -6 8 8 11
3 2 14 15 6 3 5 4 4 6 7 8 9 7 5 5 6 7 8 7 7 7 7 6 8 5 3 5 0 7 8 3 8 7 9 17 15 13 -0 2 31 7 6 6 10
4 5 9 15 16 8 6 7 8 10 10 8 6 9 10 8 10 2 5 5 6 7 7 6 6 1 5 5 7 3 6 3 5 5 9 19 8 6 0 13 9 -12 7 4 9
6 6 8 15 16 12 10 10 11 10 7 6 6 13 10 11 9 8 8 9 8 8 10 11 7 7 -4 4 3 3 8 8 9 16 11 18 10 9 13 6 1 7 8 6 11
7 8 8 13 13 13 13 11 9 7 6 6 8 12 13 12 12 8 8 9 8 9 13 9 6 8 7 5 6 6 10 5 12 15 12 13 10 14 9 -0 7 8 7 7 11
7 9 10 9 9 10 8 8 6 6 6 6 6 11 11 4 7 8 8 4 1 4 4 11 8 12 8 10 8 8 -2 5 11 9 15 17 13 14 9 21 6 9 6 5 11
8 12 14 6 11 9 7 6 7 7 7 6 6 11 8 10 10 10 6 4 5 7 8 8 11 9 13 9 8 9 7 22 8 9 11 18 13 7 22 5 5 7 5 8 17
7 14 11 9 10 10 9 8 7 7 8 8 7 6 7 7 8 8 8 6 8 6 10 12 11 13 11 -5 -10 0 5 3 -1 6 11 18 12 21 10 9 8 2 6 10 12
7 11 12 7 7 5 6 8 8 7 8 9 9 8 8 9 6 8 8 6 5 6 8 13 10 11 -1 11 -9 8 4 9 3 -8 4 16 -1 29 14 16 -3 15 7 11 10
8 10 17 5 8 7 10 11 5 5 6 6 10 10 7 8 9 5 8 10 8 7 9 14 11 4 15 9 12 11 2 2 2 7 1 0 18 16 20 35 45 4 9 5 10
9 10 13 9 5 5 3 7 10 9 10 4 7 9 13 12 10 8 8 10 10 8 8 19 8 12 7 6 9 2 -0 5 8 4 7 4 5 -19 46 13 13 -4 -4 3 7
9 10 12 17 7 7 5 6 8 12 13 8 13 10 12 9 11 9 9 7 10 8 9 19 3 -4 7 16 4 -4 16 1 7 5 -5 -3 22 7 -10 22 24 14 11 2 21
11 9 13 15 7 8 4 5 10 10 14 5 7 7 9 8 10 12 11 11 9 8 9 13 3 3 18 7 -1 -2 9 15 5 11 3 -1 6 1 14 6 18 20 -4 28 15
10 11 13 11 13 10 7 6 8 11 19 1 10 11 8 7 7 13 10 7 7 10 9 9 16 7 12 10 6 16 -4 7 17 5 11 9 2 -1 -5 25 8 11 27 5 16
11 14 12 12 15 9 10 6 7 8 8 8 6 9 4 4 7 10 9 8 8 8 11 9 11 14 7 5 3 16 21 17 -12 -4 4 40 20 22 1 -21 10 14 7 16 -14
11 13 11 13 12 10 10 8 8 9 11 10 10 10 6 6 8 7 10 8 10 10 4 12 5 -1 13 13 12 9 -1 -25 7 -4 37 8 23 -7 7 6 6 15 11 13 20
12 13 10 11 10 12 9 9 12 6 11 5 7 9 8 10 0 8 9 6 9 14 15 7 6 11 12 21 16 11 1 -2 -0 2 8 -2 -16 14 13 -4 5 11 19 -1 8
11 13 12 10 11 9 11 10 -5 3 -2 9 13 9 -0 15 11 2 3 17 -4 -4 19 4 19 19 16 2 13 4 2 8 7 20 4 19 9 8 13 9 17 12 9 14 3
11 15 14 11 11 9 8 5 7 17 6 7 9 8 16 9 5 7 9 4 8 13 -0 12 0 -4 6 11 19 4 28 13 10 12 4 18 1 9 -19 34 7 -8 13 5 8
12 13 12 12 12 10 10 -1 1 12 7 7 8 -7 13 1 6 8 -2 8 10 2 18 5 6 3 4 1 2 18 -0 13 3 2 2 7 1 -5 8 44 19 8 7 21 2
12 12 10 10 12 10 9 5 15 11 14 14 13 11 10 8 -2 0 1 9 0 -15 2 0 3 5 7 7 7 -2 4 12 -3 -3 9 14 12 -7 16 -17 -14 12 -7 25 7
10 12 11 8 9 7 7 8 8 8 9 9 6 5 8 8 10 10 9 7 10 12 1 8 8 3 9 19 18 8 5 3 8 10 13 2 -3 -3 2 11 28 32 -11 25 14
10 8 10 10 7 7 7 7 6 8 6 5 7 8 9 7 9 8 8 11 1 4 12 9 7 8 -6 6 -22 23 30 28 -2 -5 7 7 5 -14 5 10 8 11 2 -16 5
7 9 6 9 10 9 9 8 8 9 11 6 5 5 5 8 10 9 8 9 9 6 8 17 15 14 10 8 25 -33 8 4 13 -1 14 0 8 -0 15 14 19 19 16 15 3
13 6 8 10 8 6 6 6 6 7 7 8 9 10 10 8 5 7 8 8 7 10 5 10 7 8 15 16 17 26 0 -12 3 6 1 -2 2 18 -16 12 -3 13 15 26 2
16 16 12 9 11 11 14 13 10 8 8 8 8 8 7 7 8 6 7 7 7 7 9 9 9 9 6 5 9 -1 7 30 21 14 22 21 19 17 -6 9 3 5 23 14 -30
Height
5893 5892 5891 5890 5889 5889 5888 5888 5888 5888 5888 5888 5888 5888 5888 5888 5888 5888 5889 5890 5889 5889 5891 5892 5892 5890 5883 5891 5890 5889 5891 5889 5889 5889 5886 5887 5890 5889 5887 5886 5885 5882 5883 5884 5882
5893 5891 5890 5890 5889 5888 5888 5888 5888 5888 5888 5887 5888 5888 5887 5887 5887 5888 5888 5888 5888 5889 5890 5891 5891 5890 5888 5889 5890 5891 5891 5890 5891 5888 5886 5888 5885 5887 5887 5886 5885 5880 5883 5883 5882
5892 5891 5889 5888 5887 5887 5887 5887 5887 5887 5887 5886 5886 5887 5886 5886 5887 5887 5887 5887 5887 5888 5889 5890 5888 5889 5890 5889 5888 5890 5891 5888 5889 5888 5886 5887 5886 5886 5886 5887 5885 5881 5883 5881 5881
5891 5889 5887 5885 5885 5885 5885 5885 5886 5886 5886 5886 5885 5885 5885 5885 5888 5887 5887 5887 5887 5887 5888 5889 5888 5890 5888 5888 5888 5890 5889 5889 5887 5887 5885 5884 5885 5885 5885 5886 5883 5881 5885 5881 5882
5890 5887 5885 5884 5883 5883 5883 5884 5884 5885 5885 5885 5884 5884 5884 5884 5885 5885 5886 5886 5886 5886 5887 5887 5887 5888 5887 5888 5889 5889 5889 5888 5887 5885 5883 5882 5882 5882 5882 5881 5882 5881 5881 5882 5882
5888 5886 5884 5883 5882 5882 5882 5883 5883 5884 5884 5884 5884 5883 5883 5884 5884 5885 5885 5885 5885 5885 5886 5886 5886 5886 5887 5888 5889 5889 5889 5887 5885 5883 5880 5880 5880 5879 5879 5879 5880 5881 5879 5881 5883
5887 5885 5884 5883 5882 5882 5882 5882 5883 5883 5883 5884 5883 5883 5883 5884 5884 5884 5885 5885 5885 5885 5885 5885 5885 5886 5887 5888 5888 5888 5889 5885 5885 5882 5880 5879 5877 5879 5879 5873 5879 5880 5881 5880 5881
5886 5884 5883 5882 5882 5882 5882 5882 5883 5883 5883 5883 5883 5883 5883 5883 5883 5884 5885 5885 5884 5884 5884 5884 5885 5886 5886 5888 5889 5889 5881 5885 5884 5883 5882 5880 5878 5876 5871 5874 5879 5879 5881 5881 5880
5885 5883 5883 5882 5882 5882 5882 5882 5882 5883 5883 5883 5883 5883 5883 5883 5883 5884 5884 5884 5884 5884 5884 5884 5884 5885 5886 5887 5890 5888 5884 5887 5885 5883 5879 5879 5876 5872 5869 5872 5876 5879 5879 5881 5880
5884 5882 5882 5882 5882 5882 5882 5882 5883 5883 5883 5883 5883 5884 5883 5883 5883 5883 5883 5883 5883 5883 5883 5883 5883 5885 5886 5890 5888 5889 5891 5891 5890 5884 5882 5879 5878 5875 5872 5872 5875 5877 5879 5880 5880
5883 5882 5881 5881 5882 5882 5882 5882 5884 5883 5882 5883 5882 5882 5882 5882 5882 5882 5882 5882 5883 5883 5882 5882 5883 5884 5883 5892 5892 5891 5891 5892 5889 5885 5883 5881 5879 5874 5872 5873 5874 5876 5877 5878 5879
5881 5880 5880 5880 5881 5882 5882 5881 5882 5882 5882 5881 5882 5881 5881 5881 5881 5881 5882 5883 5882 5883 5882 5882 5883 5886 5886 5890 5892 5891 5892 5893 5889 5885 5882 5880 5871 5879 5873 5875 5875 5874 5876 5878 5878
5879 5879 5878 5879 5880 5881 5881 5881 5880 5880 5880 5881 5881 5881 5881 5881 5881 5881 5882 5882 5882 5882 5882 5882 5884 5888 5888 5889 5890 5892 5895 5890 5888 5886 5882 5881 5882 5877 5873 5874 5874 5875 5874 5875 5877
5877 5876 5876 5876 5879 5879 5880 5880 5880 5879 5879 5881 5881 5881 5881 5881 5881 5880 5880 5881 5881 5881 5881 5883 5885 5887 5886 5887 5889 5892 5887 5887 5886 5886 5885 5880 5878 5874 5871 5869 5872 5874 5874 5873 5876
5874 5874 5874 5874 5875 5877 5879 5878 5879 5879 5879 5881 5881 5881 5881 5882 5881 5880 5880 5880 5880 5880 5882 5883 5884 5884 5884 5885 5887 5888 5886 5886 5885 5884 5886 5877 5878 5877 5876 5874 5873 5873 5872 5872 5873
5872 5871 5872 5872 5874 5875 5876 5877 5879 5881 5879 5880 5880 5881 5881 5881 5881 5880 5880 5880 5880 5880 5880 5881 5882 5883 5883 5883 5884 5884 5885 5885 5883 5884 5878 5873 5878 5869 5873 5877 5876 5873 5872 5874 5874
5869 5869 5869 5870 5872 5873 5874 5876 5879 5879 5881 5880 5879 5879 5880 5880 5880 5880 5880 5880 5879 5880 5880 5880 5882 5883 5883 5882 5882 5882 5883 5883 5885 5878 5879 5881 5878 5873 5872 5875 5870 5874 5874 5875 5875
5866 5866 5867 5868 5869 5871 5872 5875 5878 5882 5885 5880 5878 5879 5879 5879 5880 5880 5880 5880 5879 5879 5879 5884 5887 5882 5879 5880 5880 5881 5885 5885 5884 5884 5884 5882 5882 5874 5874 5871 5872 5869 5874 5875 5874
5863 5863 5864 5865 5867 5869 5871 5872 5873 5878 5877 5878 5878 5880 5879 5879 5882 5880 5879 5880 5880 5879 5880 5883 5889 5883 5882 5877 5878 5878 5879 5883 5883 5884 5885 5885 5881 5882 5874 5871 5870 5869 5868 5870 5874
5860 5860 5861 5863 5864 5866 5868 5870 5870 5872 5874 5875 5877 5880 5881 5883 5882 5881 5883 5882 5880 5880 5879 5879 5880 5882 5883 5877 5878 5877 5878 5878 5882 5881 5881 5881 5879 5876 5874 5866 5864 5869 5869 5868 5866
5857 5857 5858 5860 5862 5864 5866 5866 5867 5869 5870 5872 5873 5874 5876 5879 5881 5883 5881 5882 5881 5878 5878 5877 5877 5879 5880 5879 5878 5879 5876 5877 5877 5881 5879 5878 5877 5874 5868 5867 5869 5866 5866 5868 5867
5854 5855 5856 5857 5860 5861 5862 5863 5865 5865 5866 5867 5868 5869 5870 5870 5871 5874 5877 5879 5872 5874 5874 5874 5872 5872 5875 5878 5879 5876 5876 5878 5877 5878 5876 5875 5876 5871 5870 5868 5869 5867 5862 5865 5864
5852 5853 5854 5855 5857 5858 5860 5860 5861 5862 5862 5864 5864 5864 5865 5866 5866 5867 5867 5869 5865 5867 5865 5864 5866 5866 5869 5872 5874 5872 5870 5873 5873 5873 5872 5872 5873 5864 5865 5864 5863 5865 5856 5862 5860
5850 5851 5852 5853 5854 5855 5856 5857 5858 5859 5859 5860 5860 5861 5861 5861 5861 5861 5861 5862 5860 5856 5859 5858 5859 5859 5860 5864 5864 5861 5863 5864 5862 5861 5866 5868 5870 5871 5856 5858 5856 5856 5853 5853 5853
5847 5848 5849 5850 5851 5852 5853 5854 5854 5855 5856 5855 5856 5856 5855 5855 5855 5854 5854 5854 5852 5849 5848 5849 5848 5849 5849 5851 5854 5853 5855 5858 5856 5857 5857 5859 5859 5864 5844 5849 5851 5850 5841 5822 5845
5844 5845 5846 5847 5848 5849 5849 5850 5850 5850 5851 5850 5850 5850 5848 5849 5848 5849 5847 5845 5844 5843 5839 5839 5837 5836 5836 5839 5839 5840 5843 5846 5849 5850 5849 5851 5850 5854 5852 5839 5839 5842 5835 5827 5827
5842 5842 5843 5844 5844 5845 5846 5846 5846 5846 5846 5845 5844 5844 5842 5842 5842 5840 5839 5838 5836 5834 5833 5831 5828 5828 5826 5827 5826 5826 5834 5837 5838 5841 5842 5840 5843 5847 5848 5836 5832 5832 5828 5829 5815